Location: Freemans Gardens
(41.6414°N, 83.6077°W)
Time: 03:15:58
(UTC+00:00)

Cosmos 1340 - Pass Details

Date: 29 October 2020
Orbit: 501 x 504 km, 81.2° (Epoch: 26 November)

Event Time Altitude Azimuth Distance (km) Brightness Sun altitude
Rises 23:41:07 0° 347° (NNW) 2,614 6.4 -13.4°
Reaches altitude 10° 23:43:15 10° 345° (NNW) 1,725 5.5 -13.8°
Maximum altitude 23:47:01 68° 263° (W) 548 3.0 -14.5°
Drops below altitude 10° 23:50:45 10° 180° (S) 1,711 5.4 -15.2°
Sets 23:52:51 0° 178° (S) 2,590 6.3 -15.6°
